Location: *
(41.7492°S, 135.4150°W)
Time: 22:17:48
(UTC+00:00)

METEOR M2 - Pass Details

Date: 11 July 2022
Orbit: 818 x 827 km, 98.4° (Epoch: 17 August)

Event Time Altitude Azimuth Distance (km) Brightness Sun altitude
Rises 14:08:36 0° 44° (NE) 3,349 ? -25.2°
Reaches altitude 10° 14:11:10 10° 54° (NE) 2,424 ? -24.7°
Maximum altitude 14:15:48 31° 114° (ESE) 1,435 ? -23.8°
Drops below altitude 10° 14:20:28 10° 173° (S) 2,448 ? -23.0°
Sets 14:23:05 0° 183° (S) 3,388 ? -22.5°
